Location: Albany
(35.0170°S, 117.8920°E)
Time: 04:07:12
(UTC+08:00)

SR - Visible Passes

Search period start: 22 January 2021 00:00
Search period end: 01 February 2021 00:00
Orbit: 575 x 880 km, 66.7° (Epoch: 21 January)

Date Brightness Start Highest point End Pass type
(mag) Time Alt. Az. Time Alt. Az. Time Alt. Az.
22 Jan ? 01:23:08 10° SSE 01:25:49 16° SE 01:26:32 15° ESE visible
22 Jan ? 03:03:58 10° SW 03:05:50 23° SW 03:05:50 23° SW visible
23 Jan ? 02:14:04 10° SSW 02:16:10 28° SSW 02:16:10 28° SSW visible
24 Jan ? 01:24:41 10° S 01:26:43 22° SSE 01:26:43 22° SSE visible
25 Jan ? 00:36:03 10° SSE 00:37:25 14° SSE 00:37:25 14° SSE visible
25 Jan ? 02:16:40 10° SW 02:16:46 11° SW 02:16:46 11° SW visible
26 Jan ? 01:26:49 10° SSW 01:27:36 15° SSW 01:27:36 15° SSW visible
27 Jan ? 00:37:29 10° S 00:38:32 16° S 00:38:32 16° S visible
27 Jan ? 23:49:00 10° SSE 23:49:32 11° SSE 23:49:32 11° SSE visible
29 Jan ? 00:39:33 10° SSW 00:39:58 12° SSW 00:39:58 12° SSW visible
29 Jan ? 23:50:18 10° S 23:51:05 14° S 23:51:05 14° S visible
30 Jan ? 23:02:00 10° SSE 23:02:15 11° SSE 23:02:15 11° SSE visible
